Worthington, MN

12:31 AM CDT on October 19, 2017 (GMT -0500)
Worthington Municipal

Weather History for KOTG - May, 2012

Change the Weather History Date:

Monday, May 7, 2012

  Actual Average Record
Temperature  
Mean Temperature 54 °F -  
Max Temperature 62 °F 62 °F 84 °F (2000)
Min Temperature 46 °F 42 °F 24 °F (1976)
Degree Days  
Heating Degree Days 11    
Growing Degree Days 4 (Base 50)    
Moisture  
Dew Point 38 °F    
Average Humidity 55    
Maximum Humidity 71    
Minimum Humidity 30    
Precipitation  
Precipitation 0.00 in - - ()
Sea Level Pressure  
Sea Level Pressure 30.01 in    
Wind  
Wind Speed 15 mph (WNW)    
Max Wind Speed 29 mph    
Max Gust Speed 33 mph    
Visibility 10 miles    
Events      
Averages and records for this station are not official NWS values.
T = Trace of Precipitation, MM = Missing Value Source: NWS Daily Summary

Daily Weather History Graph

Daily Weather History Graph

Search for Another Location

Airport or City:

Trip Planner

Search our weather history database for the weather conditions in past years. The results will help you decide how hot, cold, wet, or windy it might be!

Date:

Astronomy

May. 07, 2012 Rise Set
Actual Time 6:05 AM CDT 8:32 PM CDT
Civil Twilight 5:33 AM CDT 9:04 PM CDT
Nautical Twilight 4:53 AM CDT 9:45 PM CDT
Astronomical Twilight 4:08 AM CDT 10:30 PM CDT
Moon 10:48 PM CDT (5/7) 7:09 AM CDT (5/7)
Length of Visible Light 15h 30m
Length of Day
14h 26m
Waning Gibbous, 96% of the Moon is Illuminated
May 7
Waning Gibbous
May 12
Last Quarter
May 20
New
May 28
First Quarter
Jun 4
Full

Hourly Weather History & Observations

Time (CDT) Temp. Windchill Dew Point Humidity Pressure Visibility Wind Dir Wind Speed Gust Speed Precip Events Conditions
12:15 AM 53.6 °F - 42.8 °F 67% 30.05 in 10.0 mi WNW 12.7 mph - N/A   Clear
12:35 AM 55.4 °F - 41.0 °F 58% 30.05 in 10.0 mi NW 13.8 mph - N/A   Clear
12:55 AM 53.6 °F - 39.2 °F 58% 30.06 in 10.0 mi NW 15.0 mph - N/A   Clear
1:15 AM 53.6 °F - 39.2 °F 58% 30.07 in 10.0 mi NW 13.8 mph - N/A   Clear
1:35 AM 51.8 °F - 41.0 °F 67% 30.06 in 10.0 mi NW 10.4 mph - N/A   Clear
1:55 AM 51.8 °F - 39.2 °F 62% 30.06 in 10.0 mi NW 11.5 mph - N/A   Clear
2:15 AM 51.8 °F - 39.2 °F 62% 30.05 in 10.0 mi NW 8.1 mph - N/A   Clear
2:35 AM 51.8 °F - 37.4 °F 58% 30.05 in 10.0 mi NW 8.1 mph - N/A   Clear
2:55 AM 51.8 °F - 37.4 °F 58% 30.04 in 10.0 mi NW 9.2 mph - N/A   Clear
3:15 AM 53.6 °F - 37.4 °F 54% 30.01 in 10.0 mi NW 16.1 mph - N/A   Clear
3:35 AM 53.6 °F - 37.4 °F 54% 30.01 in 10.0 mi WNW 20.7 mph - N/A   Clear
3:55 AM 51.8 °F - 37.4 °F 58% 30.02 in 10.0 mi NW 15.0 mph - N/A   Clear
4:15 AM 50.0 °F - 39.2 °F 66% 30.02 in 10.0 mi WNW 12.7 mph - N/A   Clear
4:35 AM 48.2 °F - 39.2 °F 71% 30.02 in 10.0 mi WNW 13.8 mph - N/A   Clear
4:55 AM 48.2 °F - 37.4 °F 66% 30.02 in 10.0 mi WNW 13.8 mph - N/A   Clear
5:15 AM 48.2 °F - 37.4 °F 66% 30.03 in 10.0 mi WNW 12.7 mph - N/A   Clear
5:35 AM 46.4 °F 40.7 °F 37.4 °F 71% 30.03 in 10.0 mi WNW 12.7 mph - N/A   Clear
5:55 AM 46.4 °F 40.7 °F 37.4 °F 71% 30.02 in 10.0 mi WNW 12.7 mph - N/A   Clear
6:15 AM 46.4 °F 41.9 °F 37.4 °F 71% 30.02 in 10.0 mi WNW 9.2 mph - N/A   Clear
6:35 AM 46.4 °F 42.4 °F 37.4 °F 71% 30.02 in 10.0 mi WNW 8.1 mph - N/A   Clear
6:55 AM 46.4 °F 41.5 °F 37.4 °F 71% 30.02 in 10.0 mi WNW 10.4 mph - N/A   Clear
7:15 AM 46.4 °F 41.5 °F 37.4 °F 71% 30.03 in 10.0 mi WNW 10.4 mph - N/A   Clear
7:35 AM 48.2 °F - 37.4 °F 66% 30.02 in 10.0 mi WNW 12.7 mph - N/A   Clear
7:55 AM 48.2 °F - 37.4 °F 66% 30.03 in 10.0 mi WNW 12.7 mph - N/A   Clear
8:15 AM 50.0 °F - 39.2 °F 66% 30.04 in 10.0 mi WNW 15.0 mph - N/A   Clear
8:35 AM 51.8 °F - 37.4 °F 58% 30.03 in 10.0 mi NW 17.3 mph 20.7 mph N/A   Clear
8:55 AM 51.8 °F - 37.4 °F 58% 30.03 in 10.0 mi WNW 20.7 mph - N/A   Clear
9:15 AM 51.8 °F - 37.4 °F 58% 30.03 in 10.0 mi NW 18.4 mph 24.2 mph N/A   Clear
9:35 AM 53.6 °F - 39.2 °F 58% 30.03 in 10.0 mi NW 17.3 mph - N/A   Clear
9:55 AM 53.6 °F - 39.2 °F 58% 30.02 in 10.0 mi NW 17.3 mph - N/A   Clear
10:15 AM 53.6 °F - 39.2 °F 58% 30.02 in 10.0 mi WNW 17.3 mph 20.7 mph N/A   Clear
10:35 AM 53.6 °F - 41.0 °F 62% 30.02 in 10.0 mi WNW 18.4 mph - N/A   Clear
10:55 AM 55.4 °F - 41.0 °F 58% 30.03 in 10.0 mi WNW 17.3 mph - N/A   Partly Cloudy
11:15 AM 55.4 °F - 41.0 °F 58% 30.02 in 10.0 mi WNW 17.3 mph 24.2 mph N/A   Unknown
11:35 AM 57.2 °F - 42.8 °F 59% 30.03 in 10.0 mi WNW 16.1 mph 20.7 mph N/A   Partly Cloudy
11:55 AM 57.2 °F - 42.8 °F 59% 30.03 in 10.0 mi WNW 16.1 mph 20.7 mph N/A   Partly Cloudy
12:15 PM 57.2 °F - 42.8 °F 59% 30.02 in 10.0 mi WNW 17.3 mph 23.0 mph N/A   Clear
12:35 PM 59.0 °F - 42.8 °F 55% 30.02 in 10.0 mi West 23.0 mph 29.9 mph N/A   Clear
12:55 PM 59.0 °F - 42.8 °F 55% 30.02 in 10.0 mi WNW 20.7 mph 27.6 mph N/A   Partly Cloudy
1:15 PM 59.0 °F - 44.6 °F 59% 30.02 in 10.0 mi West 21.9 mph 25.3 mph N/A   Scattered Clouds
1:35 PM 59.0 °F - 42.8 °F 55% 30.02 in 10.0 mi WNW 19.6 mph 28.8 mph N/A   Scattered Clouds
1:55 PM 60.8 °F - 42.8 °F 52% 30.01 in 10.0 mi WNW 23.0 mph 27.6 mph N/A   Partly Cloudy
2:15 PM 60.8 °F - 39.2 °F 45% 30.01 in 10.0 mi WNW 25.3 mph 32.2 mph N/A   Clear
2:35 PM 60.8 °F - 39.2 °F 45% 30.01 in 10.0 mi WNW 23.0 mph 32.2 mph N/A   Clear
2:55 PM 62.6 °F - 39.2 °F 42% 30.00 in 10.0 mi WNW 21.9 mph 29.9 mph N/A   Clear
3:15 PM 62.6 °F - 39.2 °F 42% 29.99 in 10.0 mi WNW 20.7 mph 28.8 mph N/A   Partly Cloudy
3:35 PM 62.6 °F - 39.2 °F 42% 30.00 in 10.0 mi WNW 26.5 mph 31.1 mph N/A   Clear
3:55 PM 62.6 °F - 39.2 °F 42% 29.99 in 10.0 mi WNW 20.7 mph 27.6 mph N/A   Clear
4:15 PM 62.6 °F - 39.2 °F 42% 29.98 in 10.0 mi WNW 25.3 mph 31.1 mph N/A   Clear
4:35 PM 62.6 °F - 37.4 °F 39% 29.97 in 10.0 mi WNW 25.3 mph 32.2 mph N/A   Clear
4:55 PM 62.6 °F - 33.8 °F 34% 29.97 in 10.0 mi WNW 24.2 mph 33.4 mph N/A   Clear
5:15 PM 62.6 °F - 33.8 °F 34% 29.97 in 10.0 mi WNW 28.8 mph 33.4 mph N/A   Clear
5:35 PM 62.6 °F - 33.8 °F 34% 29.97 in 10.0 mi WNW 26.5 mph 31.1 mph N/A   Clear
5:55 PM 62.6 °F - 30.2 °F 30% 29.97 in 10.0 mi WNW 20.7 mph 32.2 mph N/A   Clear
6:15 PM 60.8 °F - 32.0 °F 34% 29.96 in 10.0 mi WNW 19.6 mph 32.2 mph N/A   Clear
6:35 PM 62.6 °F - 33.8 °F 34% 29.96 in 10.0 mi WNW 28.8 mph 32.2 mph N/A   Clear
6:55 PM 62.6 °F - 37.4 °F 39% 29.96 in 10.0 mi WNW 24.2 mph 31.1 mph N/A   Scattered Clouds
7:15 PM 60.8 °F - 37.4 °F 42% 29.96 in 10.0 mi WNW 21.9 mph 32.2 mph N/A   Partly Cloudy
7:35 PM 59.0 °F - 37.4 °F 45% 29.96 in 10.0 mi WNW 23.0 mph 32.2 mph N/A   Clear
7:55 PM 57.2 °F - 35.6 °F 44% 29.97 in 10.0 mi NW 19.6 mph 26.5 mph N/A   Clear
8:15 PM 57.2 °F - 37.4 °F 48% 29.97 in 10.0 mi NW 12.7 mph - N/A   Clear
8:35 PM 55.4 °F - 35.6 °F 47% 29.97 in 10.0 mi WNW 12.7 mph - N/A   Clear
9:15 PM 53.6 °F - 37.4 °F 54% 29.97 in 10.0 mi WNW 10.4 mph - N/A   Clear
9:35 PM 53.6 °F - 37.4 °F 54% 29.97 in 10.0 mi WNW 10.4 mph - N/A   Clear
9:55 PM 51.8 °F - 37.4 °F 58% 29.97 in 10.0 mi WNW 9.2 mph - N/A   Clear
10:15 PM 51.8 °F - 37.4 °F 58% 29.97 in 10.0 mi West 9.2 mph - N/A   Clear
10:35 PM 51.8 °F - 37.4 °F 58% 29.97 in 10.0 mi West 9.2 mph - N/A   Clear
10:55 PM 50.0 °F - 37.4 °F 62% 29.96 in 10.0 mi West 9.2 mph - N/A   Clear
11:15 PM 48.2 °F - 37.4 °F 66% 29.96 in 10.0 mi West 8.1 mph - N/A   Clear
11:35 PM 48.2 °F - 37.4 °F 66% 29.96 in 10.0 mi West 9.2 mph - N/A   Clear
11:55 PM 48.2 °F - 37.4 °F 66% 29.96 in 10.0 mi West 9.2 mph - N/A   Clear